QPF
0.01 0.03 0.05 0.08 0.10 0.06 0.04 0.03 0.03 0.03 0.01 0.01 0.02 0.01 0.02 0.03 0.02 0.03 0.07 0.11 0.11 0.12 0.10 0.11 0.15 0.10 0.08 0.05 0.03 0.02 0.03 0.05 0.05 0.07 0.07 0.05 0.04 0.03 0.04 0.06 0.07 0.07 0.08 0.10 0.13 0.16 0.19 0.15 0.12
0.02 0.04 0.07 0.12 0.10 0.04 0.03 0.02 0.02 0.01 0.01 0.01 0.02 0.02 0.02 0.01 0.01 0.02 0.04 0.06 0.10 0.10 0.09 0.14 0.18 0.13 0.08 0.05 0.04 0.03 0.03 0.04 0.06 0.06 0.07 0.06 0.04 0.03 0.04 0.05 0.07 0.07 0.08 0.10 0.14 0.19 0.19 0.13 0.11
0.02 0.04 0.08 0.11 0.05 0.03 0.04 0.02 0.02 0.01 0.01 0.01 0.02 0.02 0.01 0.01 0.01 0.03 0.05 0.05 0.08 0.07 0.07 0.14 0.20 0.17 0.10 0.06 0.04 0.04 0.04 0.04 0.05 0.05 0.07 0.08 0.08 0.07 0.06 0.06 0.07 0.09 0.11 0.13 0.17 0.23 0.15 0.10 0.12
0.03 0.07 0.11 0.07 0.03 0.01 0.01 0.01 0.01 0.01 0.01 0.02 0.02 0.01 0.01 0.01 0.01 0.03 0.05 0.04 0.05 0.06 0.05 0.10 0.17 0.20 0.17 0.09 0.06 0.04 0.03 0.03 0.03 0.05 0.09 0.13 0.14 0.09 0.06 0.06 0.07 0.09 0.12 0.13 0.20 0.28 0.17 0.16 0.20
0.05 0.07 0.08 0.06 0.04 0.02 0.01 0.01 0.01 0.02 0.01 0.02 0.02 0.02 0.01 0.02 0.02 0.03 0.05 0.04 0.04 0.04 0.04 0.07 0.14 0.22 0.24 0.18 0.14 0.10 0.08 0.06 0.05 0.07 0.09 0.15 0.16 0.10 0.08 0.07 0.06 0.07 0.08 0.11 0.21 0.25 0.16 0.15 0.18
0.05 0.06 0.04 0.03 0.04 0.02 0.01 0.01 0.01 0.01 0.02 0.01 0.01 0.01 0.02 0.03 0.04 0.05 0.04 0.02 0.03 0.03 0.03 0.05 0.08 0.14 0.20 0.20 0.18 0.16 0.14 0.12 0.10 0.10 0.12 0.13 0.12 0.11 0.10 0.08 0.06 0.07 0.08 0.11 0.19 0.18 0.13 0.12 0.12
0.06 0.06 0.03 0.01 0.03 0.02 0.01 0.00 0.01 0.01 0.01 0.01 0.01 0.01 0.02 0.03 0.05 0.05 0.04 0.02 0.03 0.02 0.02 0.04 0.08 0.10 0.13 0.15 0.16 0.16 0.14 0.14 0.12 0.09 0.10 0.11 0.11 0.12 0.12 0.11 0.09 0.09 0.09 0.10 0.12 0.10 0.10 0.11 0.11
0.05 0.03 0.01 0.01 0.02 0.02 0.02 0.01 0.01 0.01 0.01 0.01 0.02 0.01 0.02 0.02 0.03 0.05 0.05 0.03 0.03 0.02 0.02 0.03 0.07 0.08 0.09 0.10 0.11 0.12 0.13 0.12 0.11 0.11 0.10 0.12 0.14 0.16 0.16 0.14 0.12 0.10 0.08 0.09 0.09 0.09 0.09 0.10 0.08
0.02 0.01 0.01 0.00 0.01 0.01 0.01 0.01 0.01 0.01 0.02 0.03 0.02 0.01 0.01 0.01 0.02 0.04 0.04 0.04 0.04 0.02 0.02 0.02 0.04 0.04 0.05 0.05 0.06 0.08 0.10 0.09 0.08 0.08 0.08 0.08 0.09 0.10 0.13 0.14 0.14 0.15 0.15 0.15 0.13 0.10 0.09 0.08 0.07
0.01 0.01 0.00 0.00 0.01 0.01 0.01 0.01 0.00 0.02 0.04 0.04 0.02 0.01 0.01 0.01 0.01 0.01 0.02 0.03 0.03 0.02 0.02 0.03 0.03 0.03 0.03 0.02 0.02 0.03 0.07 0.07 0.07 0.05 0.04 0.03 0.03 0.05 0.07 0.10 0.13 0.16 0.17 0.16 0.13 0.11 0.09 0.06 0.06
0.01 0.01 0.01 0.01 0.01 0.01 0.01 0.01 0.01 0.02 0.04 0.03 0.02 0.01 0.00 0.00 0.00 0.01 0.01 0.02 0.02 0.02 0.02 0.03 0.02 0.02 0.02 0.02 0.02 0.02 0.03 0.03 0.03 0.03 0.02 0.02 0.03 0.04 0.04 0.05 0.07 0.09 0.09 0.08 0.07 0.07 0.05 0.06 0.07
0.01 0.01 0.02 0.02 0.01 0.01 0.01 0.01 0.02 0.03 0.04 0.02 0.01 0.01 0.00 0.00 0.00 0.01 0.01 0.01 0.02 0.02 0.02 0.03 0.02 0.02 0.02 0.02 0.02 0.02 0.02 0.02 0.03 0.04 0.04 0.04 0.04 0.04 0.04 0.05 0.05 0.05 0.04 0.06 0.06 0.04 0.04 0.07 0.06
0.01 0.02 0.03 0.02 0.01 0.01 0.00 0.00 0.01 0.02 0.01 0.00 0.00 0.00 0.00 0.00 0.01 0.01 0.01 0.01 0.02 0.02 0.04 0.03 0.01 0.01 0.02 0.02 0.02 0.03 0.03 0.03 0.04 0.08 0.08 0.06 0.05 0.04 0.04 0.05 0.05 0.06 0.05 0.04 0.05 0.04 0.04 0.06 0.07
0.02 0.02 0.02 0.01 0.01 0.01 0.00 0.00 0.01 0.01 0.01 0.01 0.01 0.00 0.00 0.00 0.00 0.01 0.01 0.00 0.01 0.02 0.03 0.02 0.01 0.01 0.01 0.01 0.01 0.02 0.04 0.04 0.06 0.09 0.09 0.06 0.06 0.07 0.05 0.05 0.05 0.05 0.05 0.03 0.02 0.03 0.03 0.04 0.06
0.01 0.02 0.02 0.01 0.01 0.01 0.00 0.01 0.01 0.01 0.01 0.01 0.01 0.01 0.01 0.00 0.00 0.00 0.00 0.00 0.01 0.02 0.03 0.03 0.01 0.01 0.01 0.01 0.01 0.02 0.02 0.03 0.04 0.04 0.04 0.03 0.04 0.05 0.04 0.04 0.05 0.03 0.03 0.02 0.02 0.03 0.04 0.05 0.04
0.01 0.03 0.02 0.02 0.02 0.01 0.01 0.02 0.02 0.02 0.01 0.01 0.01 0.01 0.01 0.01 0.01 0.01 0.00 0.01 0.02 0.03 0.04 0.04 0.03 0.02 0.02 0.01 0.02 0.02 0.01 0.01 0.02 0.02 0.02 0.02 0.02 0.03 0.03 0.02 0.02 0.02 0.02 0.02 0.02 0.02 0.02 0.02 0.03
0.01 0.04 0.03 0.02 0.01 0.01 0.01 0.02 0.02 0.02 0.01 0.01 0.01 0.01 0.00 0.00 0.01 0.01 0.01 0.02 0.02 0.02 0.02 0.03 0.04 0.03 0.02 0.02 0.03 0.01 0.00 0.01 0.01 0.01 0.02 0.02 0.01 0.01 0.01 0.01 0.01 0.01 0.02 0.01 0.01 0.01 0.02 0.01 0.03
0.01 0.03 0.03 0.02 0.01 0.02 0.03 0.02 0.02 0.02 0.02 0.02 0.01 0.01 0.00 0.01 0.01 0.01 0.02 0.02 0.02 0.01 0.01 0.02 0.03 0.02 0.01 0.02 0.01 0.01 0.00 0.01 0.01 0.01 0.01 0.01 0.01 0.01 0.01 0.01 0.01 0.01 0.01 0.01 0.01 0.01 0.01 0.01 0.02
0.01 0.02 0.03 0.02 0.02 0.02 0.03 0.02 0.02 0.02 0.02 0.02 0.02 0.01 0.01 0.01 0.02 0.02 0.02 0.02 0.02 0.02 0.02 0.01 0.01 0.02 0.02 0.01 0.01 0.01 0.01 0.01 0.01 0.00 0.01 0.01 0.01 0.01 0.02 0.01 0.01 0.01 0.01 0.00 0.01 0.01 0.01 0.02 0.02
0.01 0.03 0.03 0.02 0.02 0.04 0.03 0.02 0.02 0.02 0.02 0.02 0.03 0.03 0.02 0.01 0.02 0.03 0.04 0.04 0.03 0.02 0.01 0.01 0.02 0.01 0.01 0.01 0.02 0.02 0.02 0.01 0.01 0.00 0.01 0.01 0.01 0.01 0.01 0.01 0.01 0.01 0.01 0.01 0.01 0.01 0.01 0.01 0.02
0.01 0.03 0.03 0.02 0.04 0.07 0.03 0.03 0.03 0.03 0.03 0.04 0.05 0.05 0.04 0.02 0.03 0.03 0.04 0.05 0.03 0.02 0.01 0.01 0.01 0.01 0.01 0.01 0.01 0.02 0.02 0.01 0.01 0.01 0.01 0.02 0.01 0.01 0.02 0.02 0.02 0.02 0.02 0.01 0.01 0.01 0.01 0.02 0.02
0.01 0.02 0.02 0.02 0.03 0.07 0.04 0.04 0.04 0.04 0.06 0.09 0.10 0.07 0.06 0.05 0.04 0.04 0.04 0.03 0.03 0.01 0.00 0.00 0.00 0.01 0.01 0.01 0.01 0.01 0.01 0.01 0.01 0.01 0.01 0.01 0.02 0.02 0.02 0.02 0.02 0.02 0.01 0.01 0.02 0.02 0.02 0.02 0.03
0.00 0.01 0.02 0.02 0.02 0.04 0.05 0.04 0.04 0.06 0.12 0.18 0.14 0.08 0.09 0.06 0.05 0.03 0.02 0.02 0.02 0.01 0.00 0.00 0.00 0.00 0.00 0.01 0.01 0.01 0.01 0.01 0.02 0.01 0.01 0.01 0.02 0.03 0.04 0.02 0.03 0.02 0.02 0.02 0.03 0.02 0.02 0.02 0.03
0.00 0.02 0.02 0.02 0.03 0.04 0.02 0.03 0.06 0.08 0.11 0.11 0.08 0.06 0.06 0.04 0.04 0.03 0.02 0.02 0.02 0.01 0.01 0.00 0.00 0.00 0.00 0.00 0.00 0.01 0.01 0.01 0.02 0.02 0.01 0.01 0.01 0.04 0.04 0.03 0.03 0.02 0.02 0.05 0.05 0.03 0.03 0.03 0.03
0.01 0.02 0.03 0.03 0.04 0.04 0.02 0.03 0.03 0.05 0.04 0.07 0.06 0.06 0.05 0.04 0.03 0.02 0.01 0.01 0.02 0.01 0.00 0.00 0.00 0.00 0.00 0.00 0.00 0.00 0.00 0.01 0.02 0.02 0.01 0.00 0.01 0.01 0.01 0.01 0.02 0.02 0.03 0.04 0.03 0.03 0.04 0.04 0.05
0.00 0.01 0.02 0.02 0.05 0.05 0.04 0.04 0.02 0.03 0.02 0.03 0.04 0.05 0.06 0.05 0.03 0.02 0.02 0.02 0.02 0.01 0.01 0.00 0.00 0.01 0.01 0.01 0.01 0.01 0.01 0.01 0.02 0.03 0.02 0.01 0.01 0.01 0.02 0.02 0.02 0.02 0.03 0.03 0.03 0.04 0.05 0.07 0.09
0.00 0.01 0.01 0.02 0.02 0.03 0.04 0.03 0.02 0.01 0.01 0.01 0.03 0.02 0.03 0.05 0.05 0.04 0.03 0.03 0.03 0.02 0.01 0.01 0.01 0.01 0.01 0.01 0.01 0.02 0.01 0.02 0.02 0.02 0.02 0.01 0.01 0.02 0.03 0.04 0.03 0.02 0.02 0.03 0.03 0.04 0.05 0.05 0.05
0.00 0.00 0.00 0.02 0.02 0.03 0.04 0.03 0.02 0.02 0.01 0.01 0.01 0.01 0.01 0.03 0.05 0.05 0.03 0.02 0.02 0.02 0.01 0.02 0.01 0.01 0.00 0.01 0.01 0.01 0.02 0.01 0.02 0.02 0.02 0.01 0.01 0.03 0.03 0.04 0.04 0.02 0.01 0.03 0.04 0.04 0.03 0.03 0.04
0.00 0.00 0.00 0.01 0.02 0.03 0.04 0.02 0.01 0.01 0.01 0.01 0.01 0.02 0.03 0.03 0.03 0.03 0.03 0.02 0.02 0.02 0.03 0.04 0.02 0.02 0.01 0.01 0.01 0.02 0.03 0.02 0.03 0.02 0.02 0.01 0.02 0.02 0.03 0.03 0.03 0.02 0.02 0.03 0.04 0.03 0.03 0.03 0.03
0.00 0.00 0.01 0.01 0.02 0.01 0.01 0.01 0.01 0.01 0.01 0.02 0.04 0.06 0.07 0.03 0.02 0.02 0.02 0.02 0.02 0.02 0.02 0.02 0.02 0.03 0.02 0.02 0.03 0.05 0.04 0.04 0.04 0.03 0.02 0.02 0.02 0.02 0.02 0.02 0.03 0.03 0.03 0.04 0.04 0.04 0.03 0.02 0.02
MSLP
1009.30 1010.20 1011.29 1012.45 1013.55 1014.46 1015.08 1015.38 1015.40 1015.22 1014.98 1014.80 1014.79 1014.99 1015.35 1015.80 1016.21 1016.44 1016.42 1016.12 1015.59 1014.92 1014.23 1013.65 1013.26 1013.07 1013.04 1013.09 1013.14 1013.08 1012.88 1012.53 1012.07 1011.57 1011.11 1010.72 1010.45 1010.27 1010.18 1010.11 1010.04 1009.95 1009.86 1009.78 1009.75 1009.81 1009.98 1010.25 1010.60
1010.08 1011.25 1012.53 1013.77 1014.83 1015.61 1016.03 1016.08 1015.83 1015.39 1014.92 1014.54 1014.35 1014.41 1014.67 1015.05 1015.44 1015.70 1015.77 1015.59 1015.21 1014.69 1014.14 1013.66 1013.32 1013.15 1013.11 1013.15 1013.19 1013.18 1013.06 1012.84 1012.54 1012.20 1011.88 1011.61 1011.40 1011.25 1011.13 1011.01 1010.89 1010.76 1010.63 1010.54 1010.52 1010.57 1010.73 1010.97 1011.28
1010.81 1012.18 1013.57 1014.82 1015.80 1016.43 1016.66 1016.51 1016.06 1015.45 1014.82 1014.31 1014.01 1013.96 1014.13 1014.43 1014.77 1015.03 1015.14 1015.06 1014.81 1014.44 1014.04 1013.67 1013.40 1013.25 1013.20 1013.21 1013.23 1013.22 1013.15 1013.02 1012.85 1012.65 1012.47 1012.31 1012.18 1012.06 1011.95 1011.82 1011.68 1011.53 1011.41 1011.33 1011.31 1011.38 1011.52 1011.72 1011.96
1011.47 1012.94 1014.34 1015.53 1016.40 1016.87 1016.94 1016.65 1016.10 1015.42 1014.75 1014.21 1013.87 1013.76 1013.85 1014.06 1014.32 1014.53 1014.63 1014.60 1014.45 1014.22 1013.95 1013.70 1013.51 1013.39 1013.32 1013.29 1013.26 1013.22 1013.16 1013.07 1012.98 1012.89 1012.82 1012.75 1012.69 1012.62 1012.52 1012.40 1012.27 1012.15 1012.05 1012.01 1012.03 1012.11 1012.24 1012.40 1012.57
1012.02 1013.48 1014.81 1015.89 1016.61 1016.95 1016.91 1016.56 1016.01 1015.37 1014.77 1014.29 1013.98 1013.86 1013.88 1014.00 1014.15 1014.27 1014.32 1014.30 1014.20 1014.07 1013.91 1013.77 1013.65 1013.55 1013.47 1013.39 1013.30 1013.20 1013.11 1013.03 1012.97 1012.94 1012.93 1012.93 1012.92 1012.89 1012.82 1012.73 1012.62 1012.53 1012.48 1012.48 1012.55 1012.65 1012.79 1012.91 1013.02
1012.44 1013.81 1015.01 1015.93 1016.50 1016.73 1016.64 1016.31 1015.85 1015.35 1014.90 1014.55 1014.34 1014.24 1014.23 1014.25 1014.28 1014.28 1014.24 1014.17 1014.09 1014.00 1013.93 1013.87 1013.81 1013.73 1013.64 1013.51 1013.36 1013.20 1013.05 1012.95 1012.89 1012.88 1012.90 1012.94 1012.96 1012.95 1012.90 1012.82 1012.74 1012.69 1012.68 1012.73 1012.83 1012.97 1013.11 1013.22 1013.29
1012.71 1013.95 1014.98 1015.72 1016.16 1016.31 1016.22 1015.97 1015.66 1015.36 1015.12 1014.96 1014.87 1014.83 1014.79 1014.74 1014.64 1014.51 1014.36 1014.22 1014.11 1014.04 1014.01 1014.00 1013.98 1013.92 1013.81 1013.65 1013.44 1013.22 1013.03 1012.89 1012.81 1012.81 1012.84 1012.89 1012.92 1012.91 1012.87 1012.80 1012.72 1012.69 1012.70 1012.78 1012.91 1013.07 1013.23 1013.34 1013.40
1012.87 1013.95 1014.80 1015.39 1015.72 1015.82 1015.76 1015.63 1015.50 1015.41 1015.39 1015.42 1015.47 1015.49 1015.45 1015.32 1015.12 1014.87 1014.61 1014.39 1014.23 1014.15 1014.14 1014.15 1014.16 1014.11 1013.99 1013.80 1013.55 1013.29 1013.06 1012.90 1012.82 1012.81 1012.85 1012.91 1012.94 1012.92 1012.86 1012.78 1012.69 1012.65 1012.66 1012.75 1012.89 1013.06 1013.22 1013.34 1013.40
1012.94 1013.87 1014.57 1015.04 1015.28 1015.37 1015.36 1015.35 1015.38 1015.48 1015.65 1015.84 1016.01 1016.09 1016.05 1015.88 1015.60 1015.25 1014.91 1014.62 1014.42 1014.32 1014.31 1014.33 1014.34 1014.30 1014.16 1013.95 1013.68 1013.41 1013.17 1013.00 1012.93 1012.93 1012.99 1013.05 1013.08 1013.06 1012.98 1012.86 1012.75 1012.67 1012.66 1012.73 1012.86 1013.02 1013.18 1013.31 1013.39
1012.98 1013.80 1014.39 1014.77 1014.96 1015.05 1015.10 1015.17 1015.33 1015.57 1015.87 1016.17 1016.41 1016.53 1016.49 1016.30 1015.98 1015.58 1015.19 1014.86 1014.64 1014.52 1014.50 1014.52 1014.52 1014.47 1014.33 1014.11 1013.83 1013.56 1013.33 1013.18 1013.13 1013.16 1013.23 1013.31 1013.35 1013.33 1013.24 1013.10 1012.95 1012.83 1012.78 1012.81 1012.90 1013.05 1013.20 1013.34 1013.43
1013.08 1013.82 1014.34 1014.66 1014.83 1014.92 1015.00 1015.13 1015.35 1015.65 1016.00 1016.35 1016.61 1016.75 1016.71 1016.52 1016.19 1015.80 1015.41 1015.08 1014.85 1014.73 1014.70 1014.71 1014.70 1014.63 1014.48 1014.25 1013.99 1013.72 1013.51 1013.39 1013.37 1013.43 1013.54 1013.64 1013.70 1013.68 1013.59 1013.43 1013.26 1013.11 1013.02 1013.00 1013.06 1013.18 1013.32 1013.45 1013.55
1013.31 1014.00 1014.47 1014.76 1014.92 1015.01 1015.10 1015.23 1015.45 1015.74 1016.07 1016.39 1016.63 1016.75 1016.72 1016.55 1016.25 1015.90 1015.55 1015.25 1015.04 1014.93 1014.89 1014.88 1014.86 1014.77 1014.61 1014.39 1014.13 1013.88 1013.69 1013.59 1013.59 1013.67 1013.80 1013.93 1014.01 1014.01 1013.93 1013.79 1013.61 1013.45 1013.33 1013.29 1013.31 1013.40 1013.52 1013.64 1013.75
1013.70 1014.35 1014.79 1015.07 1015.22 1015.30 1015.37 1015.47 1015.63 1015.84 1016.08 1016.32 1016.51 1016.59 1016.57 1016.42 1016.19 1015.90 1015.61 1015.37 1015.20 1015.11 1015.06 1015.04 1014.99 1014.89 1014.73 1014.51 1014.26 1014.02 1013.84 1013.74 1013.74 1013.82 1013.95 1014.08 1014.18 1014.21 1014.16 1014.05 1013.90 1013.75 1013.64 1013.59 1013.60 1013.66 1013.76 1013.87 1013.97
1014.25 1014.84 1015.26 1015.52 1015.67 1015.73 1015.76 1015.80 1015.86 1015.96 1016.08 1016.21 1016.31 1016.35 1016.33 1016.22 1016.06 1015.85 1015.64 1015.46 1015.32 1015.23 1015.18 1015.14 1015.08 1014.97 1014.81 1014.60 1014.36 1014.13 1013.94 1013.83 1013.80 1013.84 1013.94 1014.05 1014.14 1014.19 1014.19 1014.12 1014.03 1013.93 1013.86 1013.82 1013.84 1013.90 1013.98 1014.08 1014.16
1014.88 1015.42 1015.80 1016.04 1016.18 1016.23 1016.22 1016.18 1016.14 1016.11 1016.10 1016.10 1016.12 1016.12 1016.09 1016.03 1015.93 1015.80 1015.66 1015.52 1015.40 1015.31 1015.25 1015.19 1015.11 1015.01 1014.86 1014.67 1014.45 1014.23 1014.03 1013.87 1013.78 1013.76 1013.79 1013.84 1013.91 1013.97 1013.99 1013.99 1013.97 1013.94 1013.93 1013.94 1013.98 1014.04 1014.12 1014.20 1014.27
1015.51 1015.96 1016.30 1016.54 1016.67 1016.72 1016.68 1016.58 1016.43 1016.28 1016.15 1016.04 1015.97 1015.93 1015.91 1015.89 1015.85 1015.78 1015.69 1015.57 1015.45 1015.34 1015.24 1015.16 1015.08 1014.98 1014.87 1014.72 1014.54 1014.34 1014.12 1013.92 1013.75 1013.63 1013.56 1013.53 1013.55 1013.59 1013.64 1013.69 1013.74 1013.79 1013.85 1013.91 1013.98 1014.06 1014.14 1014.21 1014.26
1016.00 1016.37 1016.68 1016.93 1017.09 1017.15 1017.10 1016.96 1016.74 1016.48 1016.23 1016.03 1015.90 1015.83 1015.81 1015.83 1015.83 1015.80 1015.73 1015.62 1015.47 1015.32 1015.17 1015.06 1014.97 1014.90 1014.84 1014.75 1014.63 1014.46 1014.24 1014.00 1013.75 1013.52 1013.33 1013.21 1013.15 1013.15 1013.20 1013.29 1013.41 1013.53 1013.65 1013.76 1013.86 1013.95 1014.03 1014.09 1014.13
1016.27 1016.59 1016.91 1017.20 1017.42 1017.53 1017.50 1017.34 1017.06 1016.72 1016.37 1016.09 1015.89 1015.79 1015.78 1015.82 1015.86 1015.86 1015.79 1015.66 1015.47 1015.25 1015.05 1014.90 1014.81 1014.77 1014.77 1014.76 1014.71 1014.60 1014.41 1014.14 1013.82 1013.49 1013.19 1012.95 1012.80 1012.75 1012.79 1012.89 1013.04 1013.21 1013.38 1013.52 1013.64 1013.74 1013.81 1013.86 1013.88
1016.28 1016.60 1016.98 1017.37 1017.69 1017.89 1017.91 1017.75 1017.43 1017.00 1016.57 1016.19 1015.93 1015.80 1015.78 1015.84 1015.91 1015.92 1015.85 1015.68 1015.44 1015.16 1014.91 1014.71 1014.61 1014.60 1014.66 1014.74 1014.78 1014.74 1014.59 1014.33 1013.97 1013.56 1013.16 1012.83 1012.59 1012.46 1012.46 1012.55 1012.71 1012.90 1013.08 1013.23 1013.34 1013.43 1013.48 1013.51 1013.53
1016.06 1016.46 1016.97 1017.52 1018.00 1018.32 1018.41 1018.26 1017.88 1017.37 1016.83 1016.35 1016.00 1015.82 1015.78 1015.84 1015.93 1015.96 1015.89 1015.70 1015.41 1015.07 1014.75 1014.51 1014.40 1014.41 1014.52 1014.68 1014.81 1014.86 1014.77 1014.53 1014.16 1013.71 1013.24 1012.82 1012.50 1012.31 1012.25 1012.31 1012.44 1012.61 1012.77 1012.90 1012.99 1013.04 1013.06 1013.07 1013.08
1015.71 1016.26 1016.98 1017.75 1018.44 1018.90 1019.07 1018.92 1018.48 1017.85 1017.17 1016.55 1016.08 1015.82 1015.74 1015.79 1015.89 1015.94 1015.88 1015.68 1015.37 1014.99 1014.62 1014.34 1014.20 1014.22 1014.37 1014.59 1014.79 1014.91 1014.89 1014.70 1014.35 1013.88 1013.38 1012.91 1012.52 1012.27 1012.15 1012.15 1012.24 1012.36 1012.47 1012.55 1012.58 1012.57 1012.55 1012.53 1012.53
1015.33 1016.13 1017.12 1018.15 1019.06 1019.68 1019.93 1019.76 1019.23 1018.45 1017.59 1016.80 1016.18 1015.80 1015.66 1015.68 1015.79 1015.87 1015.83 1015.65 1015.33 1014.93 1014.53 1014.21 1014.04 1014.05 1014.20 1014.45 1014.70 1014.88 1014.92 1014.78 1014.47 1014.02 1013.51 1013.01 1012.59 1012.29 1012.11 1012.05 1012.07 1012.12 1012.15 1012.16 1012.12 1012.05 1011.98 1011.92 1011.90
1015.06 1016.14 1017.43 1018.74 1019.87 1020.64 1020.94 1020.73 1020.09 1019.14 1018.08 1017.08 1016.28 1015.76 1015.52 1015.51 1015.62 1015.72 1015.73 1015.59 1015.29 1014.90 1014.48 1014.13 1013.93 1013.90 1014.03 1014.28 1014.55 1014.77 1014.85 1014.76 1014.49 1014.08 1013.59 1013.09 1012.65 1012.31 1012.08 1011.96 1011.91 1011.87 1011.83 1011.75 1011.63 1011.49 1011.35 1011.25 1011.19
1014.95 1016.31 1017.89 1019.46 1020.78 1021.67 1022.00 1021.75 1020.98 1019.85 1018.58 1017.37 1016.38 1015.71 1015.37 1015.31 1015.41 1015.54 1015.60 1015.51 1015.26 1014.89 1014.47 1014.11 1013.87 1013.80 1013.90 1014.11 1014.38 1014.60 1014.71 1014.65 1014.43 1014.06 1013.60 1013.12 1012.68 1012.32 1012.05 1011.87 1011.74 1011.63 1011.49 1011.33 1011.13 1010.92 1010.72 1010.56 1010.47
1015.01 1016.61 1018.42 1020.18 1021.65 1022.62 1022.96 1022.64 1021.76 1020.47 1019.02 1017.62 1016.47 1015.66 1015.23 1015.11 1015.20 1015.35 1015.46 1015.42 1015.23 1014.90 1014.51 1014.14 1013.88 1013.77 1013.81 1013.98 1014.21 1014.41 1014.53 1014.50 1014.31 1013.98 1013.57 1013.12 1012.69 1012.32 1012.02 1011.79 1011.59 1011.40 1011.19 1010.95 1010.68 1010.40 1010.14 1009.92 1009.78
1015.18 1016.94 1018.88 1020.76 1022.30 1023.29 1023.62 1023.25 1022.28 1020.88 1019.31 1017.79 1016.53 1015.62 1015.11 1014.94 1015.02 1015.19 1015.33 1015.35 1015.22 1014.94 1014.58 1014.23 1013.95 1013.81 1013.81 1013.93 1014.11 1014.28 1014.38 1014.36 1014.20 1013.91 1013.53 1013.11 1012.70 1012.33 1012.01 1011.74 1011.49 1011.24 1010.97 1010.66 1010.33 1009.99 1009.67 1009.40 1009.20
1015.40 1017.19 1019.16 1021.03 1022.55 1023.52 1023.81 1023.41 1022.41 1020.99 1019.39 1017.84 1016.53 1015.59 1015.04 1014.85 1014.91 1015.09 1015.25 1015.31 1015.23 1015.01 1014.69 1014.37 1014.10 1013.94 1013.90 1013.98 1014.11 1014.25 1014.33 1014.30 1014.15 1013.88 1013.54 1013.15 1012.75 1012.39 1012.06 1011.76 1011.47 1011.18 1010.86 1010.50 1010.12 1009.74 1009.37 1009.05 1008.79
1015.58 1017.29 1019.15 1020.91 1022.32 1023.21 1023.45 1023.04 1022.08 1020.71 1019.19 1017.71 1016.47 1015.56 1015.03 1014.84 1014.90 1015.07 1015.24 1015.33 1015.29 1015.11 1014.85 1014.57 1014.32 1014.17 1014.12 1014.16 1014.25 1014.35 1014.39 1014.35 1014.19 1013.94 1013.62 1013.25 1012.87 1012.51 1012.17 1011.86 1011.55 1011.23 1010.87 1010.49 1010.08 1009.67 1009.26 1008.89 1008.57
1015.70 1017.21 1018.84 1020.37 1021.59 1022.34 1022.52 1022.14 1021.27 1020.06 1018.71 1017.41 1016.32 1015.54 1015.08 1014.92 1014.98 1015.15 1015.32 1015.41 1015.39 1015.26 1015.06 1014.82 1014.62 1014.49 1014.44 1014.47 1014.53 1014.58 1014.59 1014.51 1014.34 1014.08 1013.76 1013.41 1013.04 1012.69 1012.36 1012.04 1011.71 1011.38 1011.01 1010.61 1010.18 1009.75 1009.32 1008.91 1008.54
1015.77 1016.99 1018.30 1019.52 1020.48 1021.05 1021.16 1020.82 1020.09 1019.09 1018.00 1016.96 1016.10 1015.50 1015.16 1015.07 1015.15 1015.31 1015.46 1015.55 1015.55 1015.46 1015.31 1015.13 1014.98 1014.89 1014.85 1014.87 1014.90 1014.91 1014.87 1014.75 1014.54 1014.27 1013.94 1013.58 1013.23 1012.89 1012.56 1012.24 1011.92 1011.58 1011.21 1010.80 1010.37 1009.93 1009.49 1009.05 1008.63
Thickness
5823 5821 5818 5805 5782 5762 5759 5772 5782 5782 5783 5790 5794 5789 5779 5771 5763 5754 5776 5785 5786 5786 5787 5788 5790 5790 5791 5791 5791 5791 5790 5790 5790 5790 5791 5790 5790 5790 5789 5787 5785 5783 5782 5780 5779 5778 5777 5775 5773
5826 5823 5812 5794 5767 5747 5757 5777 5780 5784 5790 5796 5795 5789 5781 5775 5780 5777 5780 5785 5787 5786 5787 5788 5790 5790 5790 5790 5790 5790 5789 5789 5789 5789 5789 5788 5788 5788 5787 5785 5783 5782 5780 5779 5778 5776 5775 5773 5771
5829 5824 5801 5782 5766 5755 5763 5781 5785 5793 5800 5798 5790 5789 5782 5776 5782 5781 5784 5787 5787 5786 5786 5787 5789 5790 5790 5790 5789 5789 5788 5788 5788 5787 5787 5786 5786 5785 5784 5783 5781 5780 5779 5778 5776 5775 5773 5772 5770
5826 5811 5797 5776 5767 5780 5785 5790 5795 5793 5795 5797 5791 5781 5783 5790 5788 5788 5789 5788 5786 5785 5786 5787 5788 5789 5789 5789 5788 5788 5787 5787 5786 5786 5785 5784 5783 5782 5782 5781 5780 5778 5777 5776 5774 5773 5771 5770 5769
5823 5801 5780 5768 5776 5791 5799 5802 5802 5793 5790 5791 5789 5776 5776 5789 5794 5792 5790 5788 5785 5784 5786 5787 5787 5788 5788 5787 5787 5787 5786 5785 5785 5784 5783 5782 5781 5780 5780 5779 5778 5777 5775 5774 5773 5771 5770 5769 5768
5810 5795 5769 5763 5779 5794 5801 5807 5803 5794 5790 5789 5786 5776 5775 5789 5791 5790 5790 5788 5787 5785 5785 5786 5786 5786 5787 5786 5786 5785 5785 5784 5783 5782 5781 5780 5779 5779 5778 5778 5777 5775 5774 5773 5772 5770 5769 5768 5767
5805 5789 5775 5778 5781 5788 5800 5810 5803 5794 5789 5791 5792 5775 5776 5785 5791 5793 5791 5789 5787 5786 5785 5784 5785 5785 5785 5785 5784 5784 5783 5782 5782 5781 5779 5779 5778 5778 5777 5776 5775 5774 5774 5773 5772 5770 5769 5767 5766
5820 5796 5783 5784 5783 5788 5807 5812 5809 5802 5795 5802 5799 5778 5774 5786 5794 5794 5791 5789 5787 5785 5784 5784 5784 5784 5784 5783 5783 5782 5781 5780 5780 5779 5778 5777 5777 5776 5775 5775 5774 5773 5773 5772 5770 5769 5767 5766 5765
5830 5793 5778 5788 5790 5795 5811 5808 5808 5813 5804 5802 5802 5795 5794 5797 5795 5790 5785 5784 5783 5783 5783 5784 5783 5783 5782 5782 5781 5780 5779 5779 5778 5778 5777 5776 5775 5775 5774 5774 5773 5772 5771 5770 5769 5767 5766 5765 5764
5819 5789 5794 5811 5812 5808 5812 5810 5808 5802 5794 5791 5793 5796 5799 5796 5792 5786 5781 5779 5780 5780 5782 5784 5783 5783 5782 5782 5780 5779 5778 5777 5777 5777 5776 5775 5774 5774 5773 5773 5771 5770 5769 5769 5768 5767 5766 5765 5764
5821 5806 5816 5822 5826 5821 5814 5812 5814 5799 5786 5791 5791 5792 5795 5793 5789 5785 5783 5782 5782 5783 5784 5784 5784 5784 5783 5781 5780 5778 5777 5776 5776 5775 5775 5774 5773 5772 5771 5771 5770 5769 5768 5768 5767 5766 5766 5765 5764
5824 5824 5828 5826 5831 5825 5819 5816 5810 5804 5800 5807 5805 5802 5797 5791 5788 5786 5784 5784 5784 5784 5784 5785 5785 5784 5783 5782 5780 5778 5777 5776 5775 5775 5774 5773 5772 5771 5770 5769 5769 5769 5768 5767 5766 5766 5766 5765 5763
5824 5824 5831 5833 5831 5828 5823 5815 5810 5806 5812 5812 5808 5802 5797 5793 5790 5790 5790 5788 5786 5784 5784 5785 5786 5784 5783 5782 5781 5779 5777 5776 5775 5775 5774 5773 5771 5770 5770 5769 5769 5768 5768 5767 5766 5765 5765 5764 5762
5828 5829 5829 5830 5829 5828 5819 5813 5809 5805 5813 5809 5805 5800 5798 5795 5793 5791 5789 5787 5786 5786 5785 5786 5785 5785 5784 5782 5781 5779 5778 5777 5776 5775 5774 5774 5773 5771 5769 5768 5768 5768 5768 5768 5766 5766 5765 5764 5763
5834 5821 5820 5822 5824 5823 5818 5800 5804 5811 5813 5806 5803 5801 5799 5798 5796 5793 5791 5789 5788 5787 5787 5786 5786 5785 5784 5783 5781 5780 5779 5777 5776 5775 5774 5774 5773 5771 5770 5769 5769 5768 5768 5768 5767 5766 5765 5764 5763
5823 5808 5797 5813 5821 5823 5808 5783 5804 5814 5810 5803 5804 5803 5800 5798 5798 5797 5796 5794 5792 5790 5788 5787 5788 5784 5783 5782 5781 5779 5778 5777 5776 5775 5774 5774 5773 5771 5770 5769 5768 5769 5768 5768 5766 5764 5762 5761 5761
5801 5788 5791 5805 5822 5819 5805 5790 5806 5815 5811 5804 5804 5803 5801 5798 5798 5800 5800 5797 5795 5792 5790 5787 5787 5785 5783 5782 5781 5780 5778 5777 5776 5775 5774 5774 5773 5772 5770 5769 5768 5768 5767 5766 5765 5762 5761 5758 5758
5785 5789 5793 5797 5815 5815 5802 5797 5807 5813 5812 5806 5805 5804 5802 5800 5800 5803 5802 5800 5797 5794 5792 5789 5787 5785 5783 5782 5780 5778 5777 5776 5776 5775 5774 5774 5773 5772 5770 5769 5768 5767 5765 5763 5762 5760 5759 5758 5757
5806 5797 5793 5803 5821 5810 5800 5799 5805 5810 5809 5805 5803 5803 5802 5803 5806 5806 5804 5802 5798 5794 5791 5789 5786 5784 5782 5780 5777 5774 5773 5774 5775 5775 5775 5774 5773 5772 5770 5769 5767 5766 5764 5762 5761 5759 5757 5755 5755
5809 5796 5795 5806 5819 5810 5797 5798 5807 5810 5809 5810 5808 5805 5804 5804 5804 5804 5803 5801 5798 5795 5792 5790 5787 5785 5784 5782 5780 5778 5776 5775 5775 5776 5775 5774 5773 5772 5771 5768 5767 5765 5763 5761 5759 5757 5754 5753 5753
5805 5798 5798 5799 5807 5807 5797 5786 5796 5807 5813 5814 5815 5812 5810 5808 5806 5805 5803 5801 5799 5797 5795 5793 5789 5787 5785 5784 5781 5779 5776 5774 5773 5773 5773 5774 5773 5772 5770 5769 5767 5764 5762 5759 5758 5756 5752 5748 5749
5797 5816 5815 5809 5790 5777 5786 5760 5783 5796 5801 5807 5811 5812 5811 5812 5810 5807 5804 5802 5801 5800 5799 5796 5792 5789 5787 5785 5782 5777 5773 5770 5771 5772 5773 5773 5773 5772 5771 5769 5766 5764 5762 5759 5757 5756 5753 5749 5745
5815 5828 5818 5808 5789 5775 5778 5762 5771 5791 5790 5801 5811 5813 5814 5814 5812 5809 5808 5806 5805 5803 5800 5797 5793 5789 5788 5786 5783 5779 5776 5774 5773 5773 5772 5772 5772 5771 5770 5768 5766 5763 5761 5758 5756 5754 5752 5750 5746
5830 5817 5804 5790 5775 5757 5771 5762 5763 5783 5794 5803 5811 5816 5815 5815 5814 5813 5812 5808 5805 5804 5801 5797 5792 5789 5788 5786 5784 5781 5777 5775 5772 5771 5770 5770 5770 5770 5769 5768 5765 5763 5760 5758 5755 5753 5751 5748 5746
5817 5785 5759 5752 5744 5748 5773 5768 5771 5801 5812 5815 5815 5816 5817 5818 5815 5812 5809 5807 5804 5802 5800 5797 5793 5790 5789 5786 5784 5782 5780 5777 5774 5772 5771 5769 5768 5767 5767 5766 5764 5762 5760 5758 5755 5752 5750 5748 5745
5805 5788 5757 5741 5737 5748 5767 5765 5786 5813 5820 5823 5822 5820 5819 5817 5816 5814 5812 5810 5806 5803 5801 5798 5794 5790 5789 5786 5784 5783 5781 5779 5776 5774 5772 5770 5768 5767 5767 5765 5764 5762 5759 5757 5754 5751 5749 5747 5744
5804 5791 5789 5762 5753 5745 5754 5771 5792 5811 5813 5816 5817 5817 5815 5816 5816 5815 5813 5810 5808 5805 5802 5800 5795 5791 5789 5787 5784 5783 5781 5779 5777 5775 5773 5771 5770 5768 5766 5765 5762 5760 5758 5755 5752 5748 5746 5744 5741
5816 5803 5776 5757 5738 5733 5748 5758 5767 5788 5798 5808 5810 5811 5814 5816 5815 5814 5813 5810 5808 5806 5803 5801 5797 5793 5790 5787 5785 5783 5781 5780 5777 5774 5772 5770 5769 5767 5764 5763 5760 5758 5755 5752 5749 5746 5744 5741 5738
5802 5795 5777 5758 5753 5735 5731 5752 5795 5796 5802 5805 5809 5812 5813 5814 5814 5812 5811 5810 5808 5805 5803 5799 5796 5792 5789 5787 5785 5783 5781 5779 5776 5773 5771 5769 5767 5765 5762 5760 5757 5754 5751 5749 5745 5743 5741 5737 5734
5808 5796 5779 5758 5749 5746 5738 5756 5808 5807 5809 5810 5809 5811 5813 5813 5813 5812 5810 5807 5805 5802 5800 5798 5796 5792 5790 5787 5784 5781 5779 5777 5774 5771 5770 5768 5766 5763 5760 5758 5754 5751 5748 5745 5742 5739 5737 5733 5731